Hattiesburg, MS

10:57 AM CDT on May 27, 2018 (GMT -0500)
Chain Municipal

Weather History for KHBG - December, 2012

Change the Weather History Date:

Monday, December 17, 2012

  Actual Average Record
Temperature  
Mean Temperature 60 °F 50 °F  
Max Temperature 69 °F 61 °F 82 °F (1971)
Min Temperature 51 °F 39 °F 18 °F (1960)
Degree Days  
Heating Degree Days 5 15  
Month to date heating degree days 104 237  
Since 1 July heating degree days 489 565  
Cooling Degree Days 0 0  
Month to date cooling degree days 19 12  
Year to date cooling degree days 2733 2402  
Growing Degree Days 10 (Base 50)    
Moisture  
Dew Point 57 °F    
Average Humidity 85    
Maximum Humidity 97    
Minimum Humidity 73    
Precipitation  
Precipitation 1.05 in 0.16 in 1.78 in (1961)
Month to date precipitation 2.76 2.72  
Year to date precipitation 63.60 56.98  
Sea Level Pressure  
Sea Level Pressure 29.83 in    
Wind  
Wind Speed 4 mph (WSW)    
Max Wind Speed 13 mph    
Max Gust Speed 18 mph    
Visibility 8 miles    
Events Rain , Thunderstorm    
T = Trace of Precipitation, MM = Missing Value Source: NWS Daily Summary

Daily Weather History Graph

Daily Weather History Graph

Search for Another Location

Airport or City:

Astronomy

Dec. 17, 2012 Rise Set
Actual Time 6:49 AM CST 4:57 PM CST
Civil Twilight 6:23 AM CST 5:23 PM CST
Nautical Twilight 5:52 AM CST 5:54 PM CST
Astronomical Twilight 5:23 AM CST 6:23 PM CST
Moon 10:13 AM CST (12/17) 10:00 PM CST (12/17)
Length of Visible Light 11h 00m
Length of Day
10h 07m
Waxing Crescent, 25% of the Moon is Illuminated
Dec 17
Waxing Crescent
Dec 19
First Quarter
Dec 28
Full
Jan 4
Last Quarter
Jan 11
New

Hourly Weather History & Observations

Time (CST) Temp. Dew Point Humidity Pressure Visibility Wind Dir Wind Speed Gust Speed Precip Events Conditions
12:08 AM 60.8 °F 57.2 °F 88% 29.85 in 10.0 mi Calm Calm - 0.00 in   Mostly Cloudy
12:19 AM 60.8 °F 57.2 °F 88% 29.83 in 10.0 mi SSE 6.9 mph - 0.00 in   Mostly Cloudy
12:28 AM 60.8 °F 57.2 °F 88% 29.82 in 10.0 mi SSE 8.1 mph - 0.00 in   Overcast
12:53 AM 61.0 °F 57.9 °F 90% 29.83 in 10.0 mi Calm Calm - 0.00 in Rain Light Rain
1:01 AM 60.8 °F 57.2 °F 88% 29.84 in 9.0 mi NW 5.8 mph - 0.01 in Rain Light Rain
1:27 AM 60.8 °F 57.2 °F 88% 29.84 in 10.0 mi North 3.5 mph - 0.05 in Rain , Thunderstorm Light Thunderstorms and Rain
1:53 AM 61.0 °F 57.9 °F 90% 29.82 in 9.0 mi ENE 4.6 mph - 0.12 in Rain , Thunderstorm Rain
2:27 AM 60.8 °F 57.2 °F 88% 29.82 in 4.0 mi North 9.2 mph - 0.11 in Rain , Thunderstorm Thunderstorms and Rain
2:41 AM 60.8 °F 57.2 °F 88% 29.86 in 6.0 mi NW 15.0 mph - 0.15 in Rain , Thunderstorm Thunderstorms and Rain
2:45 AM 60.8 °F 57.2 °F 88% 29.87 in 3.0 mi NNW 11.5 mph - 0.22 in Rain , Thunderstorm Heavy Thunderstorms and Rain
2:49 AM 60.8 °F 59.0 °F 94% 29.85 in 1.8 mi North 9.2 mph - 0.37 in Rain , Thunderstorm Heavy Thunderstorms and Rain
2:53 AM 60.1 °F 59.0 °F 96% 29.85 in 1.2 mi Variable 6.9 mph - 0.48 in Rain , Thunderstorm Heavy Thunderstorms and Rain
3:02 AM 60.8 °F 59.0 °F 94% 29.90 in 3.0 mi West 16.1 mph 21.9 mph 0.07 in Rain , Thunderstorm Rain
3:08 AM 60.8 °F 59.0 °F 94% 29.88 in 1.8 mi WNW 4.6 mph 21.9 mph 0.16 in Rain , Thunderstorm Heavy Rain
3:20 AM 60.8 °F 59.0 °F 94% 29.82 in 2.0 mi ESE 15.0 mph - 0.30 in Rain , Thunderstorm Heavy Rain
3:26 AM 60.8 °F 59.0 °F 94% 29.85 in 4.0 mi South 11.5 mph - 0.31 in Rain , Thunderstorm Rain
3:39 AM 60.8 °F 57.2 °F 88% 29.85 in 4.0 mi South 8.1 mph - 0.35 in Rain Heavy Rain
3:53 AM 61.0 °F 57.9 °F 90% 29.84 in 6.0 mi South 5.8 mph - 0.38 in Rain Heavy Rain
4:53 AM 60.1 °F 57.9 °F 93% 29.81 in 10.0 mi SSE 8.1 mph - 0.05 in Rain Light Rain
5:20 AM 60.8 °F 57.2 °F 88% 29.81 in 10.0 mi Calm Calm - 0.00 in   Overcast
5:53 AM 61.0 °F 57.9 °F 90% 29.82 in 9.0 mi Calm Calm - 0.02 in Rain Light Rain
6:03 AM 60.8 °F 57.2 °F 88% 29.83 in 10.0 mi Calm Calm - 0.00 in Rain , Thunderstorm Light Thunderstorms and Rain
6:18 AM 60.8 °F 57.2 °F 88% 29.83 in 10.0 mi Calm Calm - 0.00 in   Overcast
6:53 AM 60.1 °F 57.9 °F 93% 29.83 in 10.0 mi Calm Calm - 0.00 in   Overcast
7:53 AM 61.0 °F 59.0 °F 93% 29.83 in 10.0 mi SE 4.6 mph - N/A   Mostly Cloudy
8:53 AM 63.0 °F 60.1 °F 90% 29.82 in 10.0 mi Calm Calm - N/A   Mostly Cloudy
9:43 AM 64.4 °F 60.8 °F 88% 29.82 in 10.0 mi Calm Calm - N/A   Scattered Clouds
10:53 AM 66.0 °F 61.0 °F 84% 29.81 in - SW 4.6 mph - N/A   Unknown
11:53 AM 66.9 °F 62.1 °F 84% 29.79 in 10.0 mi SW 5.8 mph - N/A   Scattered Clouds
12:53 PM 68.0 °F 62.1 °F 81% 29.76 in 10.0 mi SW 5.8 mph - N/A   Scattered Clouds
1:53 PM 69.1 °F 60.1 °F 73% 29.75 in 10.0 mi WSW 9.2 mph - N/A   Clear
2:53 PM 68.0 °F 59.0 °F 73% 29.76 in 10.0 mi WSW 6.9 mph - N/A   Clear
3:53 PM 66.9 °F 59.0 °F 76% 29.76 in 10.0 mi SSW 4.6 mph - N/A   Clear
6:53 PM 60.1 °F 55.0 °F 83% 29.82 in 10.0 mi SW 3.5 mph - N/A   Clear
7:53 PM 60.1 °F 54.0 °F 80% 29.83 in 10.0 mi WSW 4.6 mph - N/A   Clear
8:53 PM 57.9 °F 52.0 °F 81% 29.85 in 10.0 mi West 4.6 mph - N/A   Clear
9:53 PM 55.9 °F 51.1 °F 84% 29.87 in 10.0 mi West 4.6 mph - N/A   Clear
10:53 PM 52.0 °F 48.0 °F 86% 29.89 in 10.0 mi West 3.5 mph - N/A   Clear
11:53 PM 54.0 °F 44.1 °F 69% 29.91 in 10.0 mi WNW 6.9 mph - N/A   Clear